Location: Arbon
(43.0005°N, 0.7472°E)
Time: 11:20:25
(UTC+00:00)

ACS3 Solar Sail - Pass Details

Date: 22 April 2026
Orbit: 894 x 947 km, 97.2° (Epoch: 12 May)

Event Time Altitude Azimuth Distance (km) Brightness Sun altitude
Rises 23:42:38 0° 27° (NNE) 3,556 5.5 -34.5°
Reaches altitude 10° 23:45:54 10° 46° (NE) 2,619 4.5 -34.5°
Enters shadow 23:48:35 17° 73° (ENE) 2,151 3.7 -34.5°
